Location: Te Maire Creek
(41.1333°S, 175.9167°E)
Time: 22:55:58
(UTC+00:00)

SeaSat 1 - Pass Details

Date: 19 May 2024
Orbit: 740 x 743 km, 108.0° (Epoch: 22 June)

Event Time Altitude Azimuth Distance (km) Brightness Sun altitude
Rises 18:47:28 0° 49° (NE) 3,184 7.3 -6.8°
Reaches altitude 10° 18:49:50 10° 57° (ENE) 2,267 6.6 -6.4°
Maximum altitude 18:54:23 39° 124° (SE) 1,128 3.8 -5.6°
Drops below altitude 10° 18:58:59 10° 191° (S) 2,289 4.7 -4.8°
Sets 19:01:23 0° 198° (SSW) 3,219 5.3 -4.4°
